Flag for Montenegro Weather past 2 weeks in Nikšić, Montenegro

Now
74 °F

Sunny.


Feels Like: 75 °F
Forecast: 52 / 85 °F
Wind: No wind

Location: Niksic

Current Time: Jul 2, 2015 at 10:07:37 AM

Latest Report: Jul 2, 2015 at 9:00 AM


Visibility: 13 mi

Pressure: 30.16 "Hg

Humidity: 74%

Dew point: 65 °F

Location of NikšićLocation

Historic Weather in Nikšić — Graph

°F

Nikšić temperature yesterday

Maximum temperature yesterday: 80 °F (at 3:00 PM)
Minimum temperature yesterday: 57 °F (at 6:00 AM)
Average temperature yesterday: 72 °F

Past Weeks' High & Low Weather Summary

 TemperatureHumidityPressure
High80 °F (Jul 1, 3:00 PM)100% (Jun 17, 12:00 PM)30.22 "Hg (Jun 17, 12:00 PM)
Low51 °F (Jun 23, 6:00 AM)43% (Jun 22, 6:00 PM)29.74 "Hg (Jun 19, 5:00 PM)
Average65 °F71%29.97 "Hg
* Reported Jun 17 12:00 Noon — Jul 2 8:00 AM, Nikšić, Weather by CustomWeather, © 2015

Note: Actual official high and low records may vary slightly from our data, if they occured in-between our weather recording intervals... More about our weather records

Advertising

Nikšić weather history for previous 24 hours

 ConditionsComfort  
Time TempWeatherWind HumidityBarometerVisibility
8:00 AM
Thu, Jul 2
67 °FSunny.2 mph89%30.19 "Hg12 mi
7:00 AM60 °FSunny.2 mph92%30.21 "Hg12 mi
6:00 AM57 °FSunny.2 mph90%30.22 "Hg12 mi
5:00 AM58 °FClear.2 mph90%30.22 "Hg12 mi
2:00 AM63 °FClear.2 mph74%30.20 "Hg12 mi
11:00 PM
Wed, Jul 1
68 °FClear.2 mph69%30.16 "Hg12 mi
10:00 PM70 °FClear.2 mph68%30.14 "Hg12 mi
9:00 PM71 °FPassing clouds.2 mph64%30.13 "Hg12 mi
8:00 PM76 °FScattered clouds.2 mph58%30.09 "Hg12 mi
7:00 PM78 °FScattered clouds.3 mph54%30.05 "Hg12 mi
6:00 PM77 °FScattered clouds.3 mph56%30.05 "Hg12 mi
5:00 PM79 °FScattered clouds.3 mph53%30.04 "Hg12 mi
4:00 PM79 °FScattered clouds.5 mph52%30.04 "Hg12 mi
3:00 PM80 °FScattered clouds.6 mph50%30.04 "Hg12 mi
2:00 PM78 °FScattered clouds.6 mph56%30.06 "Hg12 mi
1:00 PM77 °FScattered clouds.3 mph57%30.11 "Hg12 mi
12:00 PM77 °FScattered clouds.5 mph59%30.11 "Hg12 mi
11:00 AM76 °FScattered clouds.5 mph62%30.09 "Hg12 mi
10:00 AM73 °FPassing clouds.3 mph68%30.09 "Hg12 mi
Weather by CustomWeather, © 2015

See weather overviewHow to use our weather pages